Hourly Data Report for June 14, 2021

VINELAND STATION RCS
ONTARIO
Current Station Operator: ECCC - MSC

43°11'00.000" N
79°24'00.000" W
79.20 m
6139148
71171
XVN

Download Data

Hourly Data (June 2021)
Hourly Data Report for June 14, 2021
TIME
LST
Temp Definition
°C
Dew Point Definition
°C
Rel Hum Definition
%
Precip. Amount Definition
mm

Wind Dir Definition
10's deg

Wind Spd Definition
km/h
Visibility Definition
km
Stn Press Definition
kPa
Hmdx Definition


Wind Chill Definition


Weather Definition


00:00 19.0 12.2 65 0.0 27 12   99.91     LegendNANA
01:00 16.8 12.4 75 0.0 24 11   99.88     LegendNANA
02:00 16.9 12.3 75 0.0 24 13   99.86     LegendNANA
03:00 16.7 12.0 74 0.0 24 11   99.86     LegendNANA
04:00 16.4 11.9 75 0.0 23 12   99.85     LegendNANA
05:00 16.1 11.7 75 0.0 24 12   99.85     LegendNANA
06:00 17.6 11.9 69 0.0 25 10   99.88     LegendNANA
07:00 18.2 12.7 70 0.0 28 13   99.92     LegendNANA
08:00 16.2 13.1 82 0.4 27 26   100.05     LegendNANA
09:00 16.3 13.9 86 0.6 29 17   100.02     LegendNANA
10:00 17.8 15.0 84 0.0 25 13   100.01     LegendNANA
11:00 18.0 14.6 81 0.0 23 11   100.04     LegendNANA
12:00 19.5 13.8 70 0.0 24 12   99.98     LegendNANA
13:00 21.3 14.1 64 0.0 27 14   99.90 25   LegendNANA
14:00 23.3 16.1 64 0.0 23 10   99.80 28   LegendNANA
15:00 22.5 15.4 64 0.0 22 14   99.76 27   LegendNANA
16:00 19.8 15.0 74 0.5 24 14   99.77     LegendNANA
17:00 18.7 14.5 77 0.0 2 9   99.85     LegendNANA
18:00 17.9 13.8 77 0.0 29 7   99.91     LegendNANA
19:00 17.4 14.3 82 0.5 26 8   99.92     LegendNANA
20:00 17.0 14.7 87 0.2 32 12   99.97     LegendNANA
21:00 17.4 13.8 80 0.0 32 9   100.01     LegendNANA
22:00 16.1 14.1 88 0.0 25 7   100.01     LegendNANA
23:00 15.9 13.8 88 0.0 24 7   100.00     LegendNANA

Notes on Data Quality.

Legend

  • E = Estimated
  • M = Missing
  • NA = Not Available*
  • [empty] = Indicates an unobserved value
Date modified: